Time,TemperatureF,DewpointF,PressureIn,WindDirection,WindDirectionDegrees,WindSpeedMPH,WindSpeedGustMPH,Humidity,HourlyPrecipIn,Conditions,Clouds,dailyrainin,SoftwareType,DateUTC
2013-11-06 00:02:00,36.5,24.7,30.36,South,190,2.7,6.0,62,0.00,,,0.00,WSDL version 420,2013-11-06 05:02:00,
2013-11-06 00:07:00,36.5,24.4,30.36,ESE,122,0.5,6.0,61,0.00,,,0.00,WSDL version 420,2013-11-06 05:07:00,
2013-11-06 00:12:00,36.4,24.2,30.36,West,273,0.1,2.0,61,0.00,,,0.00,WSDL version 420,2013-11-06 05:12:00,
2013-11-06 00:17:00,36.5,24.3,30.39,WSW,248,1.5,2.7,61,0.00,,,0.00,WSDL version 420,2013-11-06 05:17:00,
2013-11-06 00:22:00,36.7,24.5,30.39,South,183,1.1,3.1,61,0.00,,,0.00,WSDL version 420,2013-11-06 05:22:00,
2013-11-06 00:27:00,36.7,24.6,30.39,SSE,149,0.0,3.8,61,0.00,,,0.00,WSDL version 420,2013-11-06 05:27:00,
2013-11-06 00:32:00,37.0,24.6,30.36,SSW,199,1.9,4.0,60,0.00,,,0.00,WSDL version 420,2013-11-06 05:32:00,
2013-11-06 00:37:00,37.0,24.4,30.36,SSE,153,0.0,4.0,60,0.00,,,0.00,WSDL version 420,2013-11-06 05:37:00,
2013-11-06 00:42:00,36.6,23.7,30.36,SSE,158,0.0,3.6,59,0.00,,,0.00,WSDL version 420,2013-11-06 05:42:00,
2013-11-06 00:47:00,36.2,23.3,30.36,SW,225,0.0,0.9,59,0.00,,,0.00,WSDL version 420,2013-11-06 05:47:00,
2013-11-06 00:52:00,35.9,22.9,30.36,SW,219,0.0,1.6,59,0.00,,,0.00,WSDL version 420,2013-11-06 05:52:00,
2013-11-06 00:57:00,35.7,23.0,30.36,West,270,1.2,1.6,60,0.00,,,0.00,WSDL version 420,2013-11-06 05:57:00,
2013-11-06 01:02:00,35.6,23.1,30.36,West,273,0.7,2.2,60,0.00,,,0.00,WSDL version 420,2013-11-06 06:02:00,
2013-11-06 01:07:00,35.4,23.5,30.36,WSW,248,0.0,2.2,62,-99.99,,,-99.99,WSDL version 420,2013-11-06 06:07:00,
2013-11-06 01:12:00,35.4,23.6,30.36,SW,231,0.0,0.0,62,0.00,,,0.00,WSDL version 420,2013-11-06 06:12:00,
2013-11-06 01:17:00,35.2,23.5,30.36,WNW,289,0.0,0.0,62,0.00,,,0.00,WSDL version 420,2013-11-06 06:17:00,
2013-11-06 01:22:00,35.1,23.6,30.36,WSW,256,0.0,0.0,63,0.00,,,0.00,WSDL version 420,2013-11-06 06:22:00,
2013-11-06 01:27:00,35.1,23.7,30.36,West,270,0.0,0.0,63,0.00,,,0.00,WSDL version 420,2013-11-06 06:27:00,
2013-11-06 01:32:00,35.1,23.7,30.36,West,270,0.0,0.0,63,0.00,,,0.00,WSDL version 420,2013-11-06 06:32:00,
2013-11-06 01:37:00,35.1,23.8,30.36,West,270,1.8,3.4,63,0.00,,,0.00,WSDL version 420,2013-11-06 06:37:00,
2013-11-06 01:42:00,35.2,24.3,30.36,WSW,248,1.6,3.4,64,0.00,,,0.00,WSDL version 420,2013-11-06 06:42:00,
2013-11-06 01:47:00,35.2,24.3,30.36,WSW,248,2.1,2.5,64,0.00,,,0.00,WSDL version 420,2013-11-06 06:47:00,
2013-11-06 01:52:00,35.2,24.7,30.36,WSW,248,1.6,2.5,65,0.00,,,0.00,WSDL version 420,2013-11-06 06:52:00,
2013-11-06 01:57:00,35.2,24.2,30.36,WSW,248,1.5,2.5,64,0.00,,,0.00,WSDL version 420,2013-11-06 06:57:00,
2013-11-06 02:02:00,35.0,24.0,30.36,WSW,248,0.0,2.5,64,0.00,,,0.00,WSDL version 420,2013-11-06 07:02:00,
2013-11-06 02:07:00,34.6,23.7,30.36,SW,230,0.0,1.1,64,0.00,,,0.00,WSDL version 420,2013-11-06 07:07:00,
2013-11-06 02:17:00,34.1,22.8,30.36,WSW,248,2.1,2.7,63,0.00,,,0.00,WSDL version 420,2013-11-06 07:17:00,
2013-11-06 02:22:00,34.2,22.9,30.36,WSW,248,2.3,2.7,63,0.00,,,0.00,WSDL version 420,2013-11-06 07:22:00,
2013-11-06 02:27:00,34.0,22.9,30.36,WSW,248,2.2,2.7,64,0.00,,,0.00,WSDL version 420,2013-11-06 07:27:00,
2013-11-06 02:32:00,33.9,23.0,30.33,WSW,248,2.2,2.7,64,0.00,,,0.00,WSDL version 420,2013-11-06 07:32:00,
2013-11-06 02:37:00,33.8,22.9,30.33,WSW,248,2.0,2.5,64,0.00,,,0.00,WSDL version 420,2013-11-06 07:37:00,
2013-11-06 02:42:00,33.9,23.3,30.33,WSW,248,2.2,2.5,65,0.00,,,0.00,WSDL version 420,2013-11-06 07:42:00,
2013-11-06 02:47:00,33.9,23.8,30.33,WSW,248,2.2,2.7,66,0.00,,,0.00,WSDL version 420,2013-11-06 07:47:00,
2013-11-06 02:52:00,33.8,23.7,30.33,WSW,248,0.9,2.7,66,-99.99,,,-99.99,WSDL version 420,2013-11-06 07:52:00,
2013-11-06 02:57:00,33.8,23.7,30.33,WSW,248,0.4,2.2,66,-99.99,,,-99.99,WSDL version 420,2013-11-06 07:57:00,
2013-11-06 03:02:00,33.8,23.7,30.33,WSW,248,1.6,2.2,66,0.00,,,0.00,WSDL version 420,2013-11-06 08:02:00,
2013-11-06 03:07:00,33.8,23.9,30.33,WSW,248,0.0,2.2,67,0.00,,,0.00,WSDL version 420,2013-11-06 08:07:00,
2013-11-06 03:12:00,33.8,24.0,30.33,WSW,248,0.0,0.0,67,0.00,,,0.00,WSDL version 420,2013-11-06 08:12:00,
2013-11-06 03:17:00,33.7,24.2,30.30,WSW,248,2.2,2.5,68,0.00,,,0.00,WSDL version 420,2013-11-06 08:17:00,
2013-11-06 03:22:00,33.8,24.7,30.30,WSW,248,2.1,2.5,69,0.00,,,0.00,WSDL version 420,2013-11-06 08:22:00,
2013-11-06 03:27:00,33.9,25.1,30.30,WSW,248,2.2,2.7,70,0.00,,,0.00,WSDL version 420,2013-11-06 08:27:00,
2013-11-06 03:32:00,34.2,25.3,30.33,WSW,248,2.2,2.9,69,0.00,,,0.00,WSDL version 420,2013-11-06 08:32:00,
2013-11-06 03:37:00,34.2,25.1,30.33,WSW,248,2.3,2.9,69,0.00,,,0.00,WSDL version 420,2013-11-06 08:37:00,
2013-11-06 03:42:00,34.1,25.0,30.33,WSW,248,0.0,2.7,69,0.00,,,0.00,WSDL version 420,2013-11-06 08:42:00,
2013-11-06 03:47:00,34.0,24.9,30.33,West,270,0.0,2.5,69,0.00,,,0.00,WSDL version 420,2013-11-06 08:47:00,
2013-11-06 03:52:00,34.0,24.9,30.33,WSW,248,0.7,2.2,69,0.00,,,0.00,WSDL version 420,2013-11-06 08:52:00,
2013-11-06 03:57:00,33.8,25.1,30.33,WSW,238,0.0,2.5,70,-99.99,,,-99.99,WSDL version 420,2013-11-06 08:57:00,
2013-11-06 04:02:00,33.8,24.8,30.33,SW,225,0.0,2.5,70,0.00,,,0.00,WSDL version 420,2013-11-06 09:02:00,
2013-11-06 04:07:00,33.6,24.9,30.33,WSW,248,0.0,0.0,70,0.00,,,0.00,WSDL version 420,2013-11-06 09:07:00,
2013-11-06 04:12:00,33.6,24.9,30.33,WSW,251,1.2,2.2,70,0.00,,,0.00,WSDL version 420,2013-11-06 09:12:00,
2013-11-06 04:17:00,33.6,24.9,30.33,SW,236,1.0,2.2,70,0.00,,,0.00,WSDL version 420,2013-11-06 09:17:00,
2013-11-06 04:22:00,33.8,25.2,30.33,WSW,240,0.9,2.5,71,0.00,,,0.00,WSDL version 420,2013-11-06 09:22:00,
2013-11-06 04:27:00,33.8,25.1,30.33,SW,225,0.5,2.5,70,0.00,,,0.00,WSDL version 420,2013-11-06 09:27:00,
2013-11-06 04:32:00,33.8,25.1,30.33,South,180,0.0,1.3,70,0.00,,,0.00,WSDL version 420,2013-11-06 09:32:00,
2013-11-06 04:37:00,33.7,25.0,30.33,WNW,289,1.5,2.9,70,0.00,,,0.00,WSDL version 420,2013-11-06 09:37:00,
2013-11-06 04:42:00,33.5,24.8,30.33,WSW,248,1.6,2.9,70,0.00,,,0.00,WSDL version 420,2013-11-06 09:42:00,
2013-11-06 04:47:00,33.4,25.1,30.33,WSW,253,1.6,2.5,71,0.00,,,0.00,WSDL version 420,2013-11-06 09:47:00,
2013-11-06 04:52:00,33.6,25.4,30.33,WSW,242,1.2,2.5,72,0.00,,,0.00,WSDL version 420,2013-11-06 09:52:00,
2013-11-06 04:57:00,33.6,25.5,30.33,WSW,248,0.8,2.5,72,-99.99,,,-99.99,WSDL version 420,2013-11-06 09:57:00,
2013-11-06 05:02:00,33.4,25.4,30.33,WSW,251,0.2,2.5,72,0.00,,,0.00,WSDL version 420,2013-11-06 10:02:00,
2013-11-06 05:07:00,33.3,25.2,30.33,WSW,248,1.6,2.5,72,0.00,,,0.00,WSDL version 420,2013-11-06 10:07:00,
2013-11-06 05:12:00,33.2,25.1,30.33,WSW,248,0.0,2.5,72,0.00,,,0.00,WSDL version 420,2013-11-06 10:12:00,
2013-11-06 05:17:00,33.1,25.3,30.33,West,260,1.2,2.5,73,0.00,,,0.00,WSDL version 420,2013-11-06 10:17:00,
2013-11-06 05:22:00,33.1,25.4,30.33,WSW,241,1.1,2.5,73,0.00,,,0.00,WSDL version 420,2013-11-06 10:22:00,
2013-11-06 05:27:00,33.1,25.7,30.33,West,267,1.1,3.1,74,0.00,,,0.00,WSDL version 420,2013-11-06 10:27:00,
2013-11-06 05:32:00,33.3,25.9,30.33,West,270,0.6,3.1,74,0.00,,,0.00,WSDL version 420,2013-11-06 10:32:00,
2013-11-06 05:37:00,33.4,26.1,30.33,West,273,0.0,2.7,75,0.00,,,0.00,WSDL version 420,2013-11-06 10:37:00,
2013-11-06 05:42:00,33.7,26.6,30.33,WSW,248,1.5,3.1,75,0.00,,,0.00,WSDL version 420,2013-11-06 10:42:00,
2013-11-06 05:47:00,33.9,26.8,30.33,WSW,256,1.1,3.8,75,0.00,,,0.00,WSDL version 420,2013-11-06 10:47:00,
2013-11-06 05:52:00,34.0,27.0,30.33,West,267,0.5,3.8,75,0.00,,,0.00,WSDL version 420,2013-11-06 10:52:00,
2013-11-06 05:57:00,34.0,26.9,30.33,WSW,248,1.7,2.9,75,0.00,,,0.00,WSDL version 420,2013-11-06 10:57:00,
2013-11-06 06:02:00,34.0,26.9,30.33,West,262,1.4,2.5,75,0.00,,,0.00,WSDL version 420,2013-11-06 11:02:00,
2013-11-06 06:07:00,34.0,26.9,30.33,West,270,0.0,2.5,75,0.00,,,0.00,WSDL version 420,2013-11-06 11:07:00,
2013-11-06 06:12:00,34.0,26.9,30.33,SSW,209,0.0,2.0,75,0.00,,,0.00,WSDL version 420,2013-11-06 11:12:00,
2013-11-06 06:17:00,34.0,26.8,30.33,WSW,255,0.0,2.7,74,0.00,,,0.00,WSDL version 420,2013-11-06 11:17:00,
2013-11-06 06:22:00,34.0,26.7,30.33,SW,225,0.0,2.7,75,0.00,,,0.00,WSDL version 420,2013-11-06 11:22:00,
2013-11-06 06:27:00,34.2,27.1,30.33,WSW,245,0.0,2.2,75,0.00,,,0.00,WSDL version 420,2013-11-06 11:27:00,
2013-11-06 06:32:00,34.2,27.1,30.30,WSW,248,0.0,0.0,75,-99.99,,,-99.99,WSDL version 420,2013-11-06 11:32:00,
2013-11-06 06:37:00,34.2,27.1,30.30,West,270,1.8,2.7,75,0.00,,,0.00,WSDL version 420,2013-11-06 11:37:00,
2013-11-06 06:42:00,34.2,27.0,30.30,WSW,248,1.6,2.7,75,0.00,,,0.00,WSDL version 420,2013-11-06 11:42:00,
2013-11-06 06:47:00,34.4,27.3,30.30,WSW,248,0.0,2.5,75,-99.99,,,-99.99,WSDL version 420,2013-11-06 11:47:00,
2013-11-06 06:52:00,34.5,27.4,30.30,SW,230,1.3,2.2,75,0.00,,,0.00,WSDL version 420,2013-11-06 11:52:00,
2013-11-06 06:57:00,34.7,28.0,30.30,SW,225,0.0,2.2,76,0.00,,,0.00,WSDL version 420,2013-11-06 11:57:00,
2013-11-06 07:02:00,34.9,28.0,30.27,WSW,244,0.0,1.1,75,0.00,,,0.00,WSDL version 420,2013-11-06 12:02:00,
2013-11-06 07:07:00,34.9,27.8,30.27,West,270,0.0,1.6,75,0.00,,,0.00,WSDL version 420,2013-11-06 12:07:00,
2013-11-06 07:12:00,34.9,27.8,30.27,West,270,0.0,1.6,75,0.00,,,0.00,WSDL version 420,2013-11-06 12:12:00,
2013-11-06 07:17:00,34.9,27.8,30.27,WSW,248,0.0,0.0,75,0.00,,,0.00,WSDL version 420,2013-11-06 12:17:00,
2013-11-06 07:22:00,35.1,28.2,30.27,WSW,248,0.0,0.0,76,0.00,,,0.00,WSDL version 420,2013-11-06 12:22:00,
2013-11-06 07:27:00,35.3,28.5,30.27,WSW,248,0.0,0.0,76,0.00,,,0.00,WSDL version 420,2013-11-06 12:27:00,
2013-11-06 07:32:00,35.4,28.6,30.27,SE,135,0.0,0.0,76,0.00,,,0.00,WSDL version 420,2013-11-06 12:32:00,
2013-11-06 07:37:00,35.3,28.5,30.27,SE,135,0.0,0.0,76,0.00,,,0.00,WSDL version 420,2013-11-06 12:37:00,
2013-11-06 07:42:00,35.4,28.8,30.27,SE,135,0.0,0.0,77,0.00,,,0.00,WSDL version 420,2013-11-06 12:42:00,
2013-11-06 07:47:00,35.4,28.9,30.30,SE,135,0.0,0.0,77,0.00,,,0.00,WSDL version 420,2013-11-06 12:47:00,
2013-11-06 07:52:00,35.5,29.0,30.30,SE,135,0.0,0.0,77,0.00,,,0.00,WSDL version 420,2013-11-06 12:52:00,
2013-11-06 07:57:00,35.6,29.1,30.30,SE,135,0.0,0.0,77,0.00,,,0.00,WSDL version 420,2013-11-06 12:57:00,
2013-11-06 08:02:00,35.7,29.0,30.33,East,90,0.0,0.0,76,0.00,,,0.00,WSDL version 420,2013-11-06 13:02:00,
2013-11-06 08:07:00,35.8,29.0,30.33,East,90,0.0,0.0,77,0.00,,,0.00,WSDL version 420,2013-11-06 13:07:00,
2013-11-06 08:12:00,35.8,29.3,30.33,East,90,0.0,0.0,77,0.00,,,0.00,WSDL version 420,2013-11-06 13:12:00,
2013-11-06 08:17:00,36.1,29.5,30.33,East,90,0.0,0.0,77,0.00,,,0.00,WSDL version 420,2013-11-06 13:17:00,
2013-11-06 08:22:00,36.5,29.9,30.33,East,90,0.0,0.0,77,0.00,,,0.00,WSDL version 420,2013-11-06 13:22:00,
2013-11-06 08:27:00,36.9,30.4,30.33,East,93,1.8,2.5,77,0.00,,,0.00,WSDL version 420,2013-11-06 13:27:00,
2013-11-06 08:32:00,37.2,30.6,30.33,ESE,109,1.5,2.5,76,0.00,,,0.00,WSDL version 420,2013-11-06 13:32:00,
2013-11-06 08:38:00,37.6,30.4,30.33,East,90,0.9,2.5,75,0.00,,,0.00,WSDL version 420,2013-11-06 13:38:00,
2013-11-06 08:43:00,37.7,30.5,30.33,East,90,0.0,2.0,75,0.00,,,0.00,WSDL version 420,2013-11-06 13:43:00,
2013-11-06 08:48:00,37.9,30.7,30.30,ESE,113,1.2,2.2,75,0.00,,,0.00,WSDL version 420,2013-11-06 13:48:00,
2013-11-06 08:53:00,37.9,30.5,30.30,East,90,1.5,3.1,74,0.00,,,0.00,WSDL version 420,2013-11-06 13:53:00,
2013-11-06 08:58:00,37.9,30.4,30.30,East,90,0.6,3.1,74,0.00,,,0.00,WSDL version 420,2013-11-06 13:58:00,
2013-11-06 09:03:00,38.1,30.4,30.30,ESE,110,0.6,2.7,73,0.00,,,0.00,WSDL version 420,2013-11-06 14:03:00,
2013-11-06 09:08:00,38.4,30.7,30.30,East,93,1.8,2.9,73,0.00,,,0.00,WSDL version 420,2013-11-06 14:08:00,
2013-11-06 11:16:00,49.6,32.5,30.21,ENE,71,3.0,5.8,51,0.00,,,0.00,WSDL version 420,2013-11-06 16:16:00,
2013-11-06 11:21:00,49.9,32.2,30.21,East,98,2.5,5.8,50,0.00,,,0.00,WSDL version 420,2013-11-06 16:21:00,
2013-11-06 11:26:00,50.3,32.2,30.21,SSE,151,2.0,4.3,50,0.00,,,0.00,WSDL version 420,2013-11-06 16:26:00,
2013-11-06 11:31:00,50.9,32.8,30.24,SSE,155,2.8,4.3,50,-99.99,,,-99.99,WSDL version 420,2013-11-06 16:31:00,
2013-11-06 11:36:00,51.2,32.9,30.24,South,184,1.9,5.4,49,0.00,,,0.00,WSDL version 420,2013-11-06 16:36:00,
2013-11-06 11:41:00,51.1,32.3,30.24,SSE,154,2.8,6.3,49,0.00,,,0.00,WSDL version 420,2013-11-06 16:41:00,
2013-11-06 11:46:00,51.5,32.5,30.21,WSW,251,2.1,6.3,48,0.00,,,0.00,WSDL version 420,2013-11-06 16:46:00,
2013-11-06 11:51:00,51.7,32.6,30.21,South,170,3.2,7.4,48,0.00,,,0.00,WSDL version 420,2013-11-06 16:51:00,
2013-11-06 11:56:00,51.9,32.6,30.21,WNW,287,2.2,7.4,48,0.00,,,0.00,WSDL version 420,2013-11-06 16:56:00,
2013-11-06 12:01:00,52.4,32.9,30.18,WNW,296,2.9,5.6,47,0.00,,,0.00,WSDL version 420,2013-11-06 17:01:00,
2013-11-06 12:06:00,52.8,33.4,30.18,South,190,2.3,5.6,47,0.00,,,0.00,WSDL version 420,2013-11-06 17:06:00,
2013-11-06 12:11:00,53.4,34.1,30.18,SE,141,2.7,5.4,47,0.00,,,0.00,WSDL version 420,2013-11-06 17:11:00,
2013-11-06 12:16:00,53.2,33.2,30.18,SSW,203,2.0,6.0,46,0.00,,,0.00,WSDL version 420,2013-11-06 17:16:00,
2013-11-06 12:21:00,53.7,33.8,30.18,SW,222,2.5,6.0,47,0.00,,,0.00,WSDL version 420,2013-11-06 17:21:00,
2013-11-06 12:26:00,53.6,33.0,30.18,SW,233,3.4,6.3,45,0.00,,,0.00,WSDL version 420,2013-11-06 17:26:00,
2013-11-06 12:31:00,53.3,32.6,30.18,NW,312,2.4,6.3,45,-99.99,,,-99.99,WSDL version 420,2013-11-06 17:31:00,
2013-11-06 12:36:00,53.4,33.2,30.18,ENE,68,2.8,6.5,46,0.00,,,0.00,WSDL version 420,2013-11-06 17:36:00,
2013-11-06 12:41:00,53.8,33.4,30.18,SE,128,2.8,6.5,46,0.00,,,0.00,WSDL version 420,2013-11-06 17:41:00,
2013-11-06 12:46:00,54.4,33.5,30.12,West,267,3.1,7.8,44,0.00,,,0.00,WSDL version 420,2013-11-06 17:46:00,
2013-11-06 12:51:00,54.2,33.0,30.12,SW,225,4.1,7.8,44,0.00,,,0.00,WSDL version 420,2013-11-06 17:51:00,
2013-11-06 12:56:00,53.8,33.0,30.12,South,183,2.8,7.6,45,0.00,,,0.00,WSDL version 420,2013-11-06 17:56:00,
2013-11-06 13:01:00,53.8,33.4,30.12,WSW,255,1.9,6.5,46,0.00,,,0.00,WSDL version 420,2013-11-06 18:01:00,
2013-11-06 13:06:00,53.7,33.1,30.12,SW,223,1.8,6.3,46,0.00,,,0.00,WSDL version 420,2013-11-06 18:06:00,
2013-11-06 13:11:00,53.4,33.2,30.12,NW,305,4.8,8.7,46,0.00,,,0.00,WSDL version 420,2013-11-06 18:11:00,
2013-11-06 13:16:00,53.2,33.2,30.15,North,11,1.5,8.7,47,0.00,,,0.00,WSDL version 420,2013-11-06 18:16:00,
2013-11-06 13:21:00,53.5,33.4,30.15,SSW,197,4.0,7.4,46,0.00,,,0.00,WSDL version 420,2013-11-06 18:21:00,
2013-11-06 13:26:00,53.7,33.5,30.15,WNW,289,2.4,7.4,46,0.00,,,0.00,WSDL version 420,2013-11-06 18:26:00,
2013-11-06 13:31:00,53.6,33.3,30.18,SW,219,4.9,9.6,46,0.00,,,0.00,WSDL version 420,2013-11-06 18:31:00,
2013-11-06 13:36:00,52.9,32.7,30.18,NNE,26,3.2,9.6,46,0.00,,,0.00,WSDL version 420,2013-11-06 18:36:00,
2013-11-06 13:41:00,52.7,33.1,30.18,SE,145,2.8,4.7,47,0.00,,,0.00,WSDL version 420,2013-11-06 18:41:00,
2013-11-06 13:46:00,53.6,33.7,30.15,SE,138,3.0,7.4,47,0.00,,,0.00,WSDL version 420,2013-11-06 18:46:00,
2013-11-06 13:51:00,54.9,34.5,30.15,WSW,250,3.5,7.4,46,0.00,,,0.00,WSDL version 420,2013-11-06 18:51:00,
2013-11-06 13:56:00,54.7,32.8,30.15,NW,315,4.1,9.8,43,0.00,,,0.00,WSDL version 420,2013-11-06 18:56:00,
2013-11-06 14:01:00,54.0,32.0,30.15,SW,236,4.8,9.8,43,0.00,,,0.00,WSDL version 420,2013-11-06 19:01:00,
2013-11-06 14:06:00,53.7,31.9,30.15,SW,219,4.6,9.8,43,0.00,,,0.00,WSDL version 420,2013-11-06 19:06:00,
2013-11-06 14:11:00,53.2,32.0,30.15,North,350,3.7,9.6,45,0.00,,,0.00,WSDL version 420,2013-11-06 19:11:00,
2013-11-06 14:16:00,52.9,32.3,30.12,WNW,288,3.1,7.4,46,0.00,,,0.00,WSDL version 420,2013-11-06 19:16:00,
2013-11-06 14:21:00,52.8,32.6,30.12,North,4,2.1,7.2,46,0.00,,,0.00,WSDL version 420,2013-11-06 19:21:00,
2013-11-06 14:26:00,52.7,32.5,30.12,SE,140,4.0,4.7,46,0.00,,,0.00,WSDL version 420,2013-11-06 19:26:00,
2013-11-06 14:31:00,52.7,33.1,30.12,SSE,150,3.4,7.8,47,0.00,,,0.00,WSDL version 420,2013-11-06 19:31:00,
2013-11-06 14:36:00,52.7,33.1,30.12,East,80,3.2,7.8,47,0.00,,,0.00,WSDL version 420,2013-11-06 19:36:00,
2013-11-06 14:41:00,52.5,32.8,30.12,WSW,254,2.5,6.0,47,0.00,,,0.00,WSDL version 420,2013-11-06 19:41:00,
2013-11-06 14:46:00,52.3,33.1,30.12,SSW,194,3.1,9.6,48,0.00,,,0.00,WSDL version 420,2013-11-06 19:46:00,
2013-11-06 14:51:00,52.2,33.1,30.12,SW,222,3.6,9.6,48,0.00,,,0.00,WSDL version 420,2013-11-06 19:51:00,
2013-11-06 14:56:00,52.3,33.4,30.12,ENE,73,2.7,4.9,49,0.00,,,0.00,WSDL version 420,2013-11-06 19:56:00,
2013-11-06 15:01:00,52.5,33.9,30.12,SE,126,2.1,6.3,49,-99.99,,,-99.99,WSDL version 420,2013-11-06 20:01:00,
2013-11-06 15:06:00,52.5,33.9,30.12,ESE,120,3.1,6.7,49,0.00,,,0.00,WSDL version 420,2013-11-06 20:06:00,
2013-11-06 15:11:00,52.5,33.9,30.12,North,360,2.9,7.8,49,0.00,,,0.00,WSDL version 420,2013-11-06 20:11:00,
2013-11-06 15:16:00,52.4,33.8,30.09,SSE,160,2.5,7.8,49,0.00,,,0.00,WSDL version 420,2013-11-06 20:16:00,
2013-11-06 15:21:00,52.2,33.6,30.09,SW,217,3.9,6.0,49,0.00,,,0.00,WSDL version 420,2013-11-06 20:21:00,
2013-11-06 15:26:00,52.2,33.9,30.09,NNW,328,2.8,6.3,50,0.00,,,0.00,WSDL version 420,2013-11-06 20:26:00,
2013-11-06 15:31:00,52.1,34.0,30.09,SSE,150,1.7,6.3,50,0.00,,,0.00,WSDL version 420,2013-11-06 20:31:00,
2013-11-06 15:36:00,52.0,34.1,30.09,SW,233,3.6,6.0,51,0.00,,,0.00,WSDL version 420,2013-11-06 20:36:00,
2013-11-06 15:41:00,51.8,34.3,30.09,East,100,2.6,6.0,51,0.00,,,0.00,WSDL version 420,2013-11-06 20:41:00,
2013-11-06 15:46:00,51.6,34.3,30.09,South,174,1.5,4.9,52,0.00,,,0.00,WSDL version 420,2013-11-06 20:46:00,
2013-11-06 15:51:00,51.6,34.5,30.09,SSW,209,2.8,4.7,52,-99.99,,,-99.99,WSDL version 420,2013-11-06 20:51:00,
2013-11-06 15:56:00,51.4,34.6,30.09,North,357,2.2,4.7,52,-99.99,,,-99.99,WSDL version 420,2013-11-06 20:56:00,
2013-11-06 16:01:00,51.3,34.3,30.09,West,259,1.4,4.3,52,0.00,,,0.00,WSDL version 420,2013-11-06 21:01:00,
2013-11-06 16:06:00,51.0,34.4,30.09,South,188,0.5,2.9,53,0.00,,,0.00,WSDL version 420,2013-11-06 21:06:00,
2013-11-06 16:11:00,50.7,34.2,30.09,NNW,334,1.6,5.6,53,0.00,,,0.00,WSDL version 420,2013-11-06 21:11:00,
2013-11-06 16:16:00,50.2,33.8,30.09,WNW,298,0.4,5.6,53,0.00,,,0.00,WSDL version 420,2013-11-06 21:16:00,
2013-11-06 16:21:00,49.6,33.7,30.09,NE,55,0.9,3.1,54,0.00,,,0.00,WSDL version 420,2013-11-06 21:21:00,
2013-11-06 16:26:00,49.4,33.9,30.09,NW,312,0.7,4.3,55,0.00,,,0.00,WSDL version 420,2013-11-06 21:26:00,
2013-11-06 16:31:00,49.3,34.0,30.09,NNW,342,1.0,4.3,56,0.00,,,0.00,WSDL version 420,2013-11-06 21:31:00,
2013-11-06 16:36:00,49.3,34.1,30.09,NW,311,2.6,3.8,56,0.00,,,0.00,WSDL version 420,2013-11-06 21:36:00,
2013-11-06 16:43:00,49.5,34.4,30.09,WSW,245,1.6,4.0,56,-99.99,,,-99.99,WSDL version 420,2013-11-06 21:43:00,
2013-11-06 16:48:00,49.3,34.3,30.06,NW,319,0.7,3.4,56,0.00,,,0.00,WSDL version 420,2013-11-06 21:48:00,
2013-11-06 16:53:00,49.2,34.3,30.06,South,189,2.1,4.3,57,0.00,,,0.00,WSDL version 420,2013-11-06 21:53:00,
2013-11-06 16:58:00,49.5,34.7,30.06,SW,228,0.0,4.3,56,0.00,,,0.00,WSDL version 420,2013-11-06 21:58:00,
2013-11-06 17:03:00,49.2,34.5,30.09,West,273,1.4,3.4,57,0.00,,,0.00,WSDL version 420,2013-11-06 22:03:00,
2013-11-06 17:08:00,49.0,34.5,30.09,West,270,0.0,3.4,57,-99.99,,,-99.99,WSDL version 420,2013-11-06 22:08:00,
2013-11-06 17:13:00,48.6,34.1,30.09,SSE,155,0.3,2.2,57,0.00,,,0.00,WSDL version 420,2013-11-06 22:13:00,
2013-11-06 17:18:00,48.3,33.8,30.06,SW,236,0.3,2.2,57,0.00,,,0.00,WSDL version 420,2013-11-06 22:18:00,
2013-11-06 17:23:00,48.0,33.7,30.06,West,270,1.7,2.7,58,0.00,,,0.00,WSDL version 420,2013-11-06 22:23:00,
2013-11-06 17:28:00,47.8,34.2,30.06,WNW,302,2.2,3.6,59,0.00,,,0.00,WSDL version 420,2013-11-06 22:28:00,
2013-11-06 17:33:00,47.8,34.2,30.09,SW,236,0.1,3.6,59,0.00,,,0.00,WSDL version 420,2013-11-06 22:33:00,
2013-11-06 17:39:00,47.7,34.3,30.09,ESE,109,0.6,3.1,60,0.00,,,0.00,WSDL version 420,2013-11-06 22:39:00,
2013-11-06 17:44:00,47.8,34.6,30.09,West,267,0.0,3.1,60,0.00,,,0.00,WSDL version 420,2013-11-06 22:44:00,
2013-11-06 17:49:00,47.4,34.3,30.06,West,270,0.0,0.9,60,0.00,,,0.00,WSDL version 420,2013-11-06 22:49:00,
2013-11-06 17:54:00,47.2,34.2,30.06,West,276,0.0,2.2,60,-99.99,,,-99.99,WSDL version 420,2013-11-06 22:54:00,
2013-11-06 17:59:00,47.2,34.4,30.06,NNE,19,0.7,2.9,61,0.00,,,0.00,WSDL version 420,2013-11-06 22:59:00,
2013-11-06 18:04:00,47.3,34.5,30.06,WNW,293,1.2,3.4,61,0.00,,,0.00,WSDL version 420,2013-11-06 23:04:00,
2013-11-06 18:09:00,47.3,35.0,30.06,West,273,0.4,3.4,62,0.00,,,0.00,WSDL version 420,2013-11-06 23:09:00,
2013-11-06 18:14:00,47.3,35.1,30.06,North,9,1.6,3.4,63,0.00,,,0.00,WSDL version 420,2013-11-06 23:14:00,
2013-11-06 18:19:00,47.3,35.4,30.06,WSW,242,0.9,3.4,63,0.00,,,0.00,WSDL version 420,2013-11-06 23:19:00,
2013-11-06 18:24:00,47.3,35.5,30.06,North,6,0.0,2.7,64,0.00,,,0.00,WSDL version 420,2013-11-06 23:24:00,
2013-11-06 18:29:00,47.2,35.6,30.06,WNW,301,0.9,2.9,64,0.00,,,0.00,WSDL version 420,2013-11-06 23:29:00,
2013-11-06 18:34:00,47.1,35.2,30.06,ESE,105,1.3,3.1,64,0.00,,,0.00,WSDL version 420,2013-11-06 23:34:00,
2013-11-06 18:39:00,47.3,35.8,30.06,WSW,253,0.7,3.6,64,0.00,,,0.00,WSDL version 420,2013-11-06 23:39:00,
2013-11-06 18:46:00,47.2,35.6,30.06,SSE,158,0.3,3.6,64,0.00,,,0.00,WSDL version 420,2013-11-06 23:46:00,
2013-11-06 18:51:00,47.1,35.5,30.06,WSW,245,0.3,2.0,64,-99.99,,,-99.99,WSDL version 420,2013-11-06 23:51:00,
2013-11-06 18:56:00,46.9,35.5,30.06,WNW,286,2.2,3.1,65,0.00,,,0.00,WSDL version 420,2013-11-06 23:56:00,
2013-11-06 19:01:00,46.9,36.1,30.03,West,276,2.3,3.8,66,0.00,,,0.00,WSDL version 420,2013-11-07 00:01:00,
2013-11-06 19:06:00,47.1,36.4,30.03,West,270,0.4,3.8,66,0.00,,,0.00,WSDL version 420,2013-11-07 00:06:00,
2013-11-06 19:11:00,47.0,36.0,30.03,WNW,289,2.0,3.1,65,0.00,,,0.00,WSDL version 420,2013-11-07 00:11:00,
2013-11-06 19:16:00,46.9,36.2,30.00,SE,140,0.9,3.1,66,0.00,,,0.00,WSDL version 420,2013-11-07 00:16:00,
2013-11-06 19:21:00,47.1,36.5,30.00,SE,143,1.6,3.1,67,0.00,,,0.00,WSDL version 420,2013-11-07 00:21:00,
2013-11-06 19:26:00,47.3,36.8,30.00,North,6,1.0,3.1,66,0.00,,,0.00,WSDL version 420,2013-11-07 00:26:00,
2013-11-06 19:31:00,47.1,36.5,30.03,ESE,109,1.7,2.9,67,0.00,,,0.00,WSDL version 420,2013-11-07 00:31:00,
2013-11-06 19:36:00,47.6,37.5,30.03,East,90,2.8,3.8,68,0.00,,,0.00,WSDL version 420,2013-11-07 00:36:00,
2013-11-06 19:41:00,47.9,37.5,30.03,SSW,206,1.3,3.8,67,0.00,,,0.00,WSDL version 420,2013-11-07 00:41:00,
2013-11-06 19:46:00,48.1,37.5,30.03,South,178,1.7,3.4,66,0.00,,,0.00,WSDL version 420,2013-11-07 00:46:00,
2013-11-06 19:51:00,48.2,37.4,30.03,SSE,151,1.4,3.4,66,0.00,,,0.00,WSDL version 420,2013-11-07 00:51:00,
2013-11-06 19:56:00,48.4,37.6,30.03,NNW,344,1.1,3.4,66,0.00,,,0.00,WSDL version 420,2013-11-07 00:56:00,
2013-11-06 20:01:00,48.6,37.8,30.03,South,190,1.9,3.8,66,0.00,,,0.00,WSDL version 420,2013-11-07 01:01:00,
2013-11-06 20:06:00,48.8,37.7,30.03,WNW,295,1.3,3.8,65,0.00,,,0.00,WSDL version 420,2013-11-07 01:06:00,
2013-11-06 20:11:00,49.0,37.8,30.03,WNW,295,2.4,4.9,65,0.00,,,0.00,WSDL version 420,2013-11-07 01:11:00,
2013-11-06 20:16:00,49.1,37.9,30.00,NNW,342,2.0,4.9,65,-99.99,,,-99.99,WSDL version 420,2013-11-07 01:16:00,
2013-11-06 20:21:00,49.3,37.6,30.00,ESE,103,1.4,6.5,64,0.00,,,0.00,WSDL version 420,2013-11-07 01:21:00,
2013-11-06 20:26:00,49.1,37.5,30.00,NE,36,2.9,6.5,64,0.00,,,0.00,WSDL version 420,2013-11-07 01:26:00,
2013-11-06 20:31:00,49.1,37.4,29.97,East,82,2.2,5.4,64,0.00,,,0.00,WSDL version 420,2013-11-07 01:31:00,
2013-11-06 20:36:00,49.1,37.5,29.97,NNE,31,2.5,5.6,64,0.00,,,0.00,WSDL version 420,2013-11-07 01:36:00,
2013-11-06 20:41:00,49.1,37.4,29.97,ENE,68,2.1,5.6,64,0.00,,,0.00,WSDL version 420,2013-11-07 01:41:00,
2013-11-06 20:46:00,48.9,37.3,30.00,SW,231,2.1,4.3,64,0.00,,,0.00,WSDL version 420,2013-11-07 01:46:00,
2013-11-06 20:51:00,49.0,37.6,30.00,SSE,164,2.1,5.4,64,-99.99,,,-99.99,WSDL version 420,2013-11-07 01:51:00,
2013-11-06 20:56:00,49.2,37.7,30.00,WSW,248,3.6,7.4,64,0.00,,,0.00,WSDL version 420,2013-11-07 01:56:00,
2013-11-06 21:01:00,49.3,37.6,29.97,SSW,203,3.0,8.7,64,0.00,,,0.00,WSDL version 420,2013-11-07 02:01:00,
2013-11-06 21:06:00,49.4,37.8,29.97,NW,310,3.0,9.4,64,0.00,,,0.00,WSDL version 420,2013-11-07 02:06:00,
2013-11-06 21:11:00,49.3,37.7,29.97,SW,221,3.4,9.4,64,-99.99,,,-99.99,WSDL version 420,2013-11-07 02:11:00,
2013-11-06 21:16:00,49.4,37.8,29.97,NW,305,2.4,5.6,64,0.00,,,0.00,WSDL version 420,2013-11-07 02:16:00,
2013-11-06 21:21:00,49.3,37.6,29.97,NE,35,2.9,6.0,64,0.00,,,0.00,WSDL version 420,2013-11-07 02:21:00,
2013-11-06 21:26:00,49.4,37.7,29.97,SSW,205,4.4,9.6,64,0.00,,,0.00,WSDL version 420,2013-11-07 02:26:00,
2013-11-06 21:31:00,49.5,37.8,29.97,SSW,212,3.3,9.6,64,0.00,,,0.00,WSDL version 420,2013-11-07 02:31:00,
2013-11-06 21:36:00,49.6,37.7,29.97,SSW,209,2.4,7.4,63,0.00,,,0.00,WSDL version 420,2013-11-07 02:36:00,
2013-11-06 21:41:00,49.6,37.6,29.97,SW,228,3.6,7.6,63,0.00,,,0.00,WSDL version 420,2013-11-07 02:41:00,
2013-11-06 21:46:00,49.6,37.9,29.97,WNW,293,5.0,7.8,64,0.00,,,0.00,WSDL version 420,2013-11-07 02:46:00,
2013-11-06 21:51:00,49.6,38.0,29.97,South,170,4.9,7.8,64,0.00,,,0.00,WSDL version 420,2013-11-07 02:51:00,
2013-11-06 21:56:00,49.6,38.0,29.97,East,82,3.9,7.4,64,0.00,,,0.00,WSDL version 420,2013-11-07 02:56:00,
2013-11-06 22:01:00,49.8,38.1,29.97,South,180,4.0,12.8,64,0.00,,,0.00,WSDL version 420,2013-11-07 03:01:00,
2013-11-06 22:06:00,49.8,38.1,29.97,West,262,3.6,12.8,64,0.00,,,0.00,WSDL version 420,2013-11-07 03:06:00,
2013-11-06 22:11:00,49.8,38.1,29.97,SW,233,7.0,10.5,64,0.00,,,0.00,WSDL version 420,2013-11-07 03:11:00,
2013-11-06 22:16:00,49.8,38.1,29.94,WSW,258,4.4,10.5,64,0.00,,,0.00,WSDL version 420,2013-11-07 03:16:00,
2013-11-06 22:21:00,49.8,38.1,29.94,SE,129,2.6,7.4,64,0.00,,,0.00,WSDL version 420,2013-11-07 03:21:00,
2013-11-06 22:26:00,49.6,38.4,29.94,South,177,3.5,10.1,65,0.00,,,0.00,WSDL version 420,2013-11-07 03:26:00,
2013-11-06 22:31:00,49.6,38.4,29.94,WNW,290,3.6,10.1,65,0.00,,,0.00,WSDL version 420,2013-11-07 03:31:00,
2013-11-06 22:36:00,49.6,38.4,29.94,SSW,199,3.8,8.7,65,0.00,,,0.00,WSDL version 420,2013-11-07 03:36:00,
2013-11-06 22:41:00,49.6,38.5,29.94,South,184,4.0,8.7,66,-99.99,,,-99.99,WSDL version 420,2013-11-07 03:41:00,
2013-11-06 22:46:00,49.6,38.7,29.91,WSW,244,4.2,7.8,66,0.00,,,0.00,WSDL version 420,2013-11-07 03:46:00,
2013-11-06 22:51:00,49.7,38.8,29.91,South,190,4.7,11.0,66,0.00,,,0.00,WSDL version 420,2013-11-07 03:51:00,
2013-11-06 22:56:00,49.8,38.9,29.91,SSW,207,4.6,11.0,66,0.00,,,0.00,WSDL version 420,2013-11-07 03:56:00,
2013-11-06 23:01:00,49.8,38.9,29.91,SSW,209,3.3,8.1,66,0.00,,,0.00,WSDL version 420,2013-11-07 04:01:00,
2013-11-06 23:06:00,49.8,38.9,29.91,WSW,244,4.7,8.1,66,0.00,,,0.00,WSDL version 420,2013-11-07 04:06:00,
2013-11-06 23:11:00,49.8,38.9,29.91,SSE,163,3.7,8.1,66,0.00,,,0.00,WSDL version 420,2013-11-07 04:11:00,
2013-11-06 23:16:00,49.8,38.9,29.91,West,273,4.1,9.6,66,0.00,,,0.00,WSDL version 420,2013-11-07 04:16:00,
2013-11-06 23:21:00,50.0,39.1,29.91,WSW,251,6.6,12.1,66,0.00,,,0.00,WSDL version 420,2013-11-07 04:21:00,
2013-11-06 23:26:00,50.0,39.1,29.91,South,170,3.9,12.3,66,0.00,,,0.00,WSDL version 420,2013-11-07 04:26:00,
2013-11-06 23:31:00,50.0,39.1,29.91,WSW,248,5.2,12.3,66,0.00,,,0.00,WSDL version 420,2013-11-07 04:31:00,
2013-11-06 23:36:00,50.0,39.5,29.91,WSW,248,3.4,10.5,67,-99.99,,,-99.99,WSDL version 420,2013-11-07 04:36:00,
2013-11-06 23:41:00,50.0,39.5,29.91,West,267,4.7,8.1,67,0.00,,,0.00,WSDL version 420,2013-11-07 04:41:00,
2013-11-06 23:46:00,50.0,39.6,29.91,SSW,195,5.2,11.9,68,0.00,,,0.00,WSDL version 420,2013-11-07 04:46:00,
2013-11-06 23:51:00,49.9,39.8,29.91,East,79,4.8,11.9,68,0.00,,,0.00,WSDL version 420,2013-11-07 04:51:00,
2013-11-06 23:56:00,49.8,39.7,29.91,West,266,3.9,9.8,68,0.00,,,0.00,WSDL version 420,2013-11-07 04:56:00,